CW4635 Weather Reports


Display with metric or nautical units.
time (UTC)temp
F
wind
direction
speed
MPH
gust
MPH
rain 1hr
in
rain 24hr
in
rain mn
in
humidity
%
barometer
mb
20260505003048 78 239 6.0 14.0 0.00 0.00 0.00 44 1007.7
20260505001547 79 240 8.0 14.0 0.00 0.00 0.00 41 1007.8
20260505000048 80 286 6.0 16.0 0.00 0.00 0.00 41 1008.1
20260504234610 80 248 7.0 15.0 0.00 0.00 0.00 42 1007.9
20260504233049 80 215 7.0 15.0 0.00 0.00 0.00 41 1008.0
20260504231552 81 234 6.0 13.0 0.00 0.00 0.00 39 1008.2
20260504230043 81 248 7.0 15.0 0.00 0.00 0.00 37 1008.3
20260504224543 81 187 4.0 11.0 0.00 0.00 0.00 34 1008.5
20260504223041 80 240 5.0 11.0 0.00 0.00 0.00 33 1008.7
20260504221542 80 184 4.0 10.0 0.00 0.00 0.00 33 1008.8
20260504220039 80 225 5.0 11.0 0.00 0.00 0.00 34 1009.0
20260504214540 79 269 6.0 12.0 0.00 0.00 0.00 34 1009.1
20260504213032 76 293 4.0 9.0 0.00 0.00 0.00 40 1009.2
20260504211530 72 43 2.0 5.0 0.00 0.00 0.00 59 1009.3
20260504210030 72 47 3.0 4.0 0.00 0.00 0.00 58 1009.4
20260504204601 72 31 2.0 5.0 0.00 0.00 0.00 56 1009.5
20260504203030 72 71 3.0 6.0 0.00 0.00 0.00 56 1009.7
20260504201527 73 116 3.0 10.0 0.00 0.00 0.00 48 1009.8
20260504200030 72 140 3.0 10.0 0.00 0.00 0.00 49 1009.8
20260504194523 71 103 4.0 8.0 0.00 0.00 0.00 48 1009.8
20260504193025 70 164 7.0 9.0 0.00 0.00 0.00 47 1009.8
20260504191521 71 147 4.0 8.0 0.00 0.00 0.00 49 1009.9
20260504190021 70 152 5.0 8.0 0.00 0.00 0.00 49 1010.0
20260504184520 69 150 6.0 10.0 0.00 0.00 0.00 50 1010.0
20260504183020 70 153 6.0 9.0 0.00 0.00 0.00 48 1009.9
20260504181519 71 150 5.0 9.0 0.00 0.00 0.00 47 1010.0
20260504180018 70 225 3.0 9.0 0.00 0.00 0.00 49 1010.2
20260504174517 69 171 4.0 7.0 0.00 0.00 0.00 51 1010.2
20260504173016 68 153 4.0 8.0 0.00 0.00 0.00 53 1010.3
20260504171533 68 164 3.0 5.0 0.00 0.00 0.00 55 1010.3
20260504081527 61 267 0.0 3.0 0.00 0.00 0.00 65 1008.3
20260504050007 67 261 3.0 5.0 0.00 0.00 0.00 58 1009.0
20260504044508 67 261 4.0 6.0 0.00 0.00 0.00 60 1008.9
20260504043006 65 286 2.0 4.0 0.00 0.00 0.00 62 1008.9
20260504041506 65 286 3.0 4.0 0.00 0.00 0.00 61 1008.8
20260504040007 65 295 1.0 4.0 0.00 0.00 0.00 58 1008.8
20260504034505 65 14 0.0 2.0 0.00 0.00 0.00 58 1008.8
20260504033004 66 14 1.0 3.0 0.00 0.00 0.00 63 1008.8
20260504031504 68 14 0.0 1.0 0.00 0.00 0.00 60 1008.7
20260504030003 70 14 0.0 2.0 0.00 0.00 0.00 56 1008.8
20260504024505 74 14 0.0 0.0 0.00 0.00 0.00 51 1008.8
20260504023002 76 14 0.0 1.0 0.00 0.00 0.00 48 1009.0
20260504021601 76 14 1.0 2.0 0.00 0.00 0.00 48 1009.2
20260504014618 78 14 0.0 3.0 0.00 0.00 0.00 45 1009.3
20260504013103 78 14 1.0 2.0 0.00 0.00 0.00 44 1009.5
20260504011559 77 14 1.0 3.0 0.00 0.00 0.00 45 1009.7
20260504010059 77 13 0.0 3.0 0.00 0.00 0.00 45 1009.8
20260504004553 77 11 1.0 3.0 0.00 0.00 0.00 45 1009.9